HULIANWANG DIGUI-56

导读

HULIANWANG DIGUI-56是中国于2025年8月4日发射的低轨互联网卫星,隶属于我国数字地球互联网星座体系。作为低轨通信卫星网络的组成部分,该卫星旨在补充完善全球宽带互联网覆盖能力,为各类终端提供稳定便捷的空间互联服务,进一步推动我国商业航天与天地一体化网络建设。

基本信息
目录编号:
65113
目录名称:
HULIANWANG DIGUI-56
国际标识:
2025-168H
轨道中心:
EARTH
卫星名称:
HULIANWANG DIGUI-56
卫星全名:
HULIANWANG DIGUI-56
卫星状态:
在轨 (已飞行321 天)
发射日期:
2025-08-04 UTC
国别 :
中国 (CN)
星等 :
--
轨道信息
数据来源 国际轨道数据 AOE轨道数据
星历时间 2026-06-20T18:03:28+0800
1天前
查看轨道信息
2026-06-17T17:00:00+0800
4天前
查看轨道信息
半长轴 7527.466km 7527.468km
偏心率 0.0012134 0.0011974
轨道倾角 50.000° 50.000°
近地点辐角 124.259° 115.168°
升交点赤经 313.817° 324.736°
平近点角 235.944° 68.413°
近地点 1140.195km 1140.317km
远地点 1158.463km 1158.345km
周期 108.326分钟 108.326分钟
每日圈数 13.293202 13.293197
详细信息
使用方式:
暂无
2D轨道图
3D轨道图
轨道高度分析图
轨道倾角分析图
轨道综合分析图
查看轨道综合分析图